Regional Weather Roundup
Issued by NWS Green Bay, WI

Home | Current Version | Previous Version | Graphics & Text | Print | Product List | Glossary Off
Versions: 1 2 3 4 5 6 7 8 9 10 11 12 13 14 15 16 17 18 19 20 21 22 23 24 25 26 27 28 29 30 31 32 33 34 35 36 37 38 39 40 41 42 43 44 45 46 47 48 49 50

000
ASUS43 KGRB 101411
RWRGRB

NORTH-CENTRAL AND NORTHEAST WISCONSIN REGIONAL WEATHER ROUNDUP
NATIONAL WEATHER SERVICE GREEN BAY WI
800 AM CST SAT DEC 10 2016

WIZ005-009-010>012-018-019-101500-
NORTH CENTRAL WISCONSIN

CITY           SKY/WX    TMP DP  RH WIND       PRES   REMARKS
IRONWOOD       LGT SNOW   5   1  83 SW12      30.40F FOG     WCI -11
MANITOWISH WTR CLEAR     -1  -3  88 W3        30.37S
ARBOR VITAE    CLOUDY     6   0  73 NW7       30.36F WCI  -5
EAGLE RIVER    CLOUDY     5  -3  70 W8        30.35S WCI  -9
LAND O LAKES   FLURRIES   6   1  79 W3        30.36S
RHINELANDER    MOCLDY     6  -2  69 NW8       30.36F WCI  -7
PHILLIPS       CLEAR      3  -4  75 CALM      30.38F
ANTIGO         CLOUDY     8   1  73 NW13      30.37S WCI  -8
TOMAHAWK       CLOUDY     6  -2  70 NW3       30.39S
MERRILL        CLOUDY    10   2  72 N6        30.41R WCI   0
$$

WIZ013-073-101500-
NORTHEAST WISCONSIN

CITY           SKY/WX    TMP DP  RH WIND       PRES   REMARKS
IRON MOUNTAIN  CLEAR      7  -3  64 W7        30.35S WCI  -5
MARINETTE      CLEAR     13   3  64 NW6       30.44R WCI   4
OCONTO         CLOUDY    15   3  59 NW7       30.43S WCI   5
$$

WIZ017-030-035>037-045-101500-
CENTRAL WISCONSIN

CITY           SKY/WX    TMP DP  RH WIND       PRES   REMARKS
MEDFORD        CLOUDY     8   0  69 NW8       30.39R WCI  -5
WAUSAU         CLOUDY    11   3  70 NW8       30.40R WCI  -1
MOSINEE        CLOUDY    10   3  72 W6        30.41R WCI   1
MARSHFIELD     CLOUDY    10   1  67 NW10      30.42R WCI  -4
WISC RAPIDS    FLURRIES  10   7  87 W8        30.46R WCI  -2
STEVENS POINT  CLOUDY    10   0  63 W5        30.43S WCI   2
WAUPACA        CLOUDY    15  10  78 CALM      30.45S
SHAWANO        CLOUDY    17   7  66 NW6       30.43S WCI   8
CLINTONVILLE   CLOUDY    14   3  62 W7        30.44R WCI   4
WAUTOMA        CLEAR      8   5  87 SW6       30.47  WCI  -2
$$

WIZ038-039-048-051-101500-
FOX VALLEY

CITY           SKY/WX    TMP DP  RH WIND       PRES   REMARKS
NWS GREEN BAY  CLOUDY    18   5  57 W14       30.44R WCI   4
APPLETON       MOCLDY    12   7  79 W7        30.42R WCI   2
OSHKOSH        CLEAR     12   7  80 W6        30.44S WCI   3
FOND DU LAC    CLEAR     13   6  74 CALM      30.45S
$$

WIZ022-050-052-101500-
EAST CENTRAL WISCONSIN

CITY           SKY/WX    TMP DP  RH WIND       PRES   REMARKS
EPHRAIM        PTSUNNY   14   2  58 NW7G20    30.40R WCI   4
WASHINGTON ISL PTSUNNY   14   4  64 W12G20    30.40R WCI   0
STURGEON BAY   CLOUDY    16   6  65 NW12      30.42R WCI   3
MANITOWOC      CLOUDY    16  10  77 W9        30.44S WCI   4
SHEBOYGAN      CLEAR     14   8  77 W9        30.45R WCI   2
$$

LMZ563-521-522-541>543-101500-
LAKESHORE

STATION/POSITION TIME  TEMP    WIND        PRES    VSBY  WAVE
                       AIR SEA DIR/SP/G                  HT/PER
                 (UTC) (F)     (DEG/KT/KT) (MB)    (MI)  (FT/S)
SHEBOYGAN LKSHOR 1400   16     250/ 10/ 12 1032.4R
KEWAUNEE LKSHORE 1348   17     300/  5/ 15 1029.5S
NORTHPORT PIER   1356   16     280/ 11/ 21 1029.5R
SISTER BAY LKSHO 1320   16     310/ 21/ 23   N/A
CHAMBERS ISLAND  1340   14     250/  8/ 20 1029.1S
MENOMINEE LKSHOR 1348   13     290/  9/ 12 1029.4R
$$



USA.gov is the U.S. government's official web portal to all federal, state and local government web resources and services.